070  
ASCA42 TJSJ 301210  
RWRPR  
PUERTO RICO/U.S. VIRGIN ISLANDS HOURLY WEATHER ROUNDUP  
NATIONAL WEATHER SERVICE SAN JUAN PR  
800 AM AST THU MAY 30 2024  
 
PRZ001>002-007>008-010-301300-  
PUERTO RICO  
 
CITY SKY/WX TMP DP RH WIND PRES REMARKS
 
SAN JUAN LMM MOSUNNY 84 77 79 VRB5 30.02R HX 94 TC 29  
PONCE MOSUNNY 86 75 70 VRB6G13 29.99S HX 95 TC 30  
AGUADILLA SUNNY 82 73 74 E5 30.03R TC 28  
CEIBA MOSUNNY 84 79 84 SE14 30.03R HX 96 TC 29  

 
 
VIZ001>002-301300-  
U.S. VIRGIN ISLANDS  
 
CITY SKY/WX TMP DP RH WIND PRES REMARKS
 
CHARLOTTE AMA MOSUNNY N/A N/A N/A SE12 30.01S  
CHRISTIANSTED MOSUNNY 86 77 74 E14 30.02R HX 97 TC 30  

 
 
HOURLY WEATHER ROUNDUP FOR THE NEWS MEDIA  
 
CITY SKY/WX TMP DP RH WIND PRES REMARKS
 
ORLANDO SUNNY 79 69 71 N3 30.05R TC 26  
NEW YORK PTSUNNY 61 54 77 N20 29.94R TC 16  
NEWARK CLOUDY 59 53 80 NW13G24 29.96R TC 15  
CHICAGO SUNNY 51 40 65 N7 30.24R TC 11  
HARTFORD LGT RAIN 63 61 93 CALM 29.86S TC 17  
BOSTON HVY RAIN 55 53 93 N13 29.91R FOG TC 13  
DALLAS CLOUDY 75 72 90 SE9 29.96S TC 24  
PHILADELPHIA MOSUNNY 60 47 61 NW16G24 30.01R TC 16  
LOS ANGELES CLOUDY 59 54 83 SE6 29.95S TC 15  
WASHINGTON DC MOSUNNY 62 51 67 NW9 30.08R TC 17  
 
CLICK HERE TO GO TO PREVIOUS BULLETINS.

The Nexlab PR Page Main Text Page